Location: Zapote
(9.9191°N, 84.0597°W)
Time: 04:16:51
(UTC-06:00)

Envisat - Pass Details

Date: 31 January 2021
Orbit: 764 x 766 km, 98.1° (Epoch: 09 March)

Event Time Altitude Azimuth Distance (km) Brightness Sun altitude
Rises 05:01:03 0° 12° (NNE) 3,218 6.2 -14.4°
Reaches altitude 10° 05:03:21 10° 12° (NNE) 2,293 5.4 -13.9°
Maximum altitude 05:08:25 90° 100° (E) 767 3.0 -12.7°
Drops below altitude 10° 05:13:29 10° 192° (SSW) 2,293 5.5 -11.5°
Sets 05:15:47 0° 192° (SSW) 3,219 6.3 -10.9°
